Time,TemperatureF,DewpointF,PressureIn,WindDirection,WindDirectionDegrees,WindSpeedMPH,WindSpeedGustMPH,Humidity,HourlyPrecipIn,Conditions,Clouds,dailyrainin,SoftwareType,DateUTC
2013-04-03 00:00:00,27.9,1.2,29.82,North,0,0.0,0.0,31,0.00,,SCT050,0.00,VWS V13.01,2013-04-03 04:00:00,
2013-04-03 00:05:00,27.9,1.2,29.82,North,0,0.0,0.0,31,0.00,,FEW050,0.00,VWS V13.01,2013-04-03 04:05:00,
2013-04-03 00:10:00,27.9,1.2,29.82,North,0,0.0,0.0,31,0.00,,FEW050,0.00,VWS V13.01,2013-04-03 04:10:00,
2013-04-03 00:15:00,27.9,1.2,29.82,North,0,0.0,0.0,31,0.00,,FEW050,0.00,VWS V13.01,2013-04-03 04:15:00,
2013-04-03 00:20:00,27.7,1.0,29.82,North,0,0.0,0.0,31,0.00,,FEW050,0.00,VWS V13.01,2013-04-03 04:20:00,
2013-04-03 00:25:00,27.7,1.0,29.82,North,0,0.0,0.0,31,0.00,,FEW050,0.00,VWS V13.01,2013-04-03 04:25:00,
2013-04-03 00:30:00,27.7,1.0,29.82,North,0,0.0,0.0,31,0.00,,FEW050,0.00,VWS V13.01,2013-04-03 04:30:00,
2013-04-03 00:35:00,27.7,1.0,29.82,North,0,0.0,0.0,31,0.00,,FEW050,0.00,VWS V13.01,2013-04-03 04:35:00,
2013-04-03 00:40:00,27.5,0.8,29.85,North,0,0.0,0.0,31,0.00,,SCT050,0.00,VWS V13.01,2013-04-03 04:40:00,
2013-04-03 00:45:00,27.7,1.0,29.85,North,0,0.0,0.0,31,0.00,,SCT050,0.00,VWS V13.01,2013-04-03 04:45:00,
2013-04-03 00:50:00,27.7,1.0,29.85,North,0,0.0,0.0,31,0.00,,SCT050,0.00,VWS V13.01,2013-04-03 04:50:00,
2013-04-03 00:55:00,27.7,1.0,29.82,North,0,0.0,0.0,31,0.00,,SCT050,0.00,VWS V13.01,2013-04-03 04:55:00,
2013-04-03 01:00:00,27.7,1.0,29.82,North,0,0.0,0.0,31,0.00,,BKN050,0.00,VWS V13.01,2013-04-03 05:00:00,
2013-04-03 01:06:00,27.7,1.0,29.82,North,0,0.0,0.0,31,0.00,,BKN050,0.00,VWS V13.01,2013-04-03 05:06:00,
2013-04-03 01:11:00,27.7,1.0,29.85,North,0,0.0,0.0,31,0.00,,BKN050,0.00,VWS V13.01,2013-04-03 05:11:00,
2013-04-03 01:16:00,27.7,1.0,29.85,North,0,0.0,0.0,31,0.00,,BKN050,0.00,VWS V13.01,2013-04-03 05:16:00,
2013-04-03 01:21:00,27.5,0.8,29.85,North,0,0.0,0.0,31,0.00,,BKN050,0.00,VWS V13.01,2013-04-03 05:21:00,
2013-04-03 01:26:00,27.5,0.8,29.85,North,0,0.0,0.0,31,0.00,,BKN050,0.00,VWS V13.01,2013-04-03 05:26:00,
2013-04-03 01:31:00,27.5,0.8,29.85,North,0,0.0,0.0,31,0.00,,BKN050,0.00,VWS V13.01,2013-04-03 05:31:00,
2013-04-03 01:36:00,27.5,0.8,29.85,North,0,0.0,0.0,31,0.00,,BKN050,0.00,VWS V13.01,2013-04-03 05:36:00,
2013-04-03 01:41:00,27.5,0.8,29.85,North,0,0.0,0.0,31,0.00,,BKN060,0.00,VWS V13.01,2013-04-03 05:41:00,
2013-04-03 01:46:00,27.5,0.8,29.85,North,0,0.0,0.0,31,0.00,,BKN060,0.00,VWS V13.01,2013-04-03 05:46:00,
2013-04-03 01:51:00,27.3,0.7,29.85,North,0,0.0,0.0,31,0.00,,BKN060,0.00,VWS V13.01,2013-04-03 05:51:00,
2013-04-03 01:56:00,27.3,0.7,29.85,North,0,0.0,0.0,31,0.00,,BKN060,0.00,VWS V13.01,2013-04-03 05:56:00,
2013-04-03 02:01:00,27.3,0.7,29.85,North,0,0.0,0.0,31,0.00,,BKN060,0.00,VWS V13.01,2013-04-03 06:01:00,
2013-04-03 02:07:00,27.3,0.7,29.85,North,0,0.0,0.0,31,0.00,,BKN060,0.00,VWS V13.01,2013-04-03 06:07:00,
2013-04-03 02:12:00,27.3,0.7,29.85,North,0,0.0,0.0,31,0.00,,BKN060,0.00,VWS V13.01,2013-04-03 06:12:00,
2013-04-03 02:17:00,27.1,0.5,29.85,North,0,0.0,0.0,31,0.00,,BKN060,0.00,VWS V13.01,2013-04-03 06:17:00,
2013-04-03 02:22:00,27.1,0.5,29.85,North,0,0.0,0.0,31,0.00,,BKN060,0.00,VWS V13.01,2013-04-03 06:22:00,
2013-04-03 02:27:00,27.0,0.4,29.85,North,0,0.0,0.0,31,0.00,,BKN060,0.00,VWS V13.01,2013-04-03 06:27:00,
2013-04-03 02:32:00,27.0,-1.8,29.85,North,0,0.0,0.0,28,0.00,,BKN060,0.00,VWS V13.01,2013-04-03 06:32:00,
2013-04-03 02:37:00,27.0,-1.8,29.85,North,0,0.0,0.0,28,0.00,,BKN060,0.00,VWS V13.01,2013-04-03 06:37:00,
2013-04-03 02:42:00,27.0,-1.8,29.85,North,0,0.0,0.0,28,0.00,,FEW050,0.00,VWS V13.01,2013-04-03 06:42:00,
2013-04-03 02:47:00,26.8,-1.9,29.85,North,0,0.0,0.0,28,0.00,,FEW050,0.00,VWS V13.01,2013-04-03 06:47:00,
2013-04-03 02:52:00,26.6,-1.4,29.85,North,0,0.0,0.0,29,0.00,,FEW050,0.00,VWS V13.01,2013-04-03 06:52:00,
2013-04-03 02:57:00,26.6,-1.4,29.85,North,0,0.0,0.0,29,0.00,,FEW050,0.00,VWS V13.01,2013-04-03 06:57:00,
2013-04-03 03:02:00,26.4,-1.5,29.85,North,0,0.0,0.0,29,0.00,,FEW050,0.00,VWS V13.01,2013-04-03 07:02:00,
2013-04-03 03:07:00,26.2,-1.7,29.85,North,0,0.0,0.0,29,0.00,,FEW050,0.00,VWS V13.01,2013-04-03 07:07:00,
2013-04-03 03:12:00,26.2,-1.7,29.85,North,0,0.0,0.0,29,0.00,,FEW050,0.00,VWS V13.01,2013-04-03 07:12:00,
2013-04-03 03:17:00,26.2,-1.7,29.85,North,0,0.0,0.0,29,0.00,,FEW050,0.00,VWS V13.01,2013-04-03 07:17:00,
2013-04-03 03:22:00,26.2,-1.7,29.85,North,0,0.0,0.0,29,0.00,,FEW050,0.00,VWS V13.01,2013-04-03 07:22:00,
2013-04-03 03:27:00,26.2,-1.7,29.85,North,0,0.0,0.0,29,0.00,,FEW050,0.00,VWS V13.01,2013-04-03 07:27:00,
2013-04-03 03:32:00,26.1,-1.8,29.85,North,0,0.0,0.0,29,0.00,,FEW050,0.00,VWS V13.01,2013-04-03 07:32:00,
2013-04-03 03:37:00,26.1,-1.8,29.85,North,0,0.0,0.0,29,0.00,,FEW050,0.00,VWS V13.01,2013-04-03 07:37:00,
2013-04-03 03:42:00,25.9,-2.0,29.85,North,0,0.0,0.0,29,0.00,,FEW050,0.00,VWS V13.01,2013-04-03 07:42:00,
2013-04-03 03:48:00,26.1,-1.8,29.85,North,0,0.0,0.0,29,0.00,,FEW050,0.00,VWS V13.01,2013-04-03 07:48:00,
2013-04-03 03:53:00,25.9,-2.0,29.85,North,0,0.0,0.0,29,0.00,,FEW050,0.00,VWS V13.01,2013-04-03 07:53:00,
2013-04-03 03:58:00,25.9,-2.0,29.85,North,0,0.0,0.0,29,0.00,,FEW050,0.00,VWS V13.01,2013-04-03 07:58:00,
2013-04-03 04:03:00,25.9,-2.0,29.85,North,0,0.0,0.0,29,0.00,,CLR,0.00,VWS V13.01,2013-04-03 08:03:00,
2013-04-03 04:08:00,25.7,-2.2,29.85,North,0,0.0,0.0,29,0.00,,CLR,0.00,VWS V13.01,2013-04-03 08:08:00,
2013-04-03 04:13:00,25.5,-2.3,29.85,North,0,0.0,0.0,29,0.00,,CLR,0.00,VWS V13.01,2013-04-03 08:13:00,
2013-04-03 04:18:00,25.5,-2.3,29.85,North,0,0.0,0.0,29,0.00,,CLR,0.00,VWS V13.01,2013-04-03 08:18:00,
2013-04-03 04:23:00,25.5,-2.3,29.85,North,0,0.0,0.0,29,0.00,,CLR,0.00,VWS V13.01,2013-04-03 08:23:00,
2013-04-03 04:28:00,25.3,-2.5,29.85,North,0,0.0,0.0,29,0.00,,CLR,0.00,VWS V13.01,2013-04-03 08:28:00,
2013-04-03 04:33:00,25.3,-2.5,29.85,North,0,0.0,0.0,29,0.00,,CLR,0.00,VWS V13.01,2013-04-03 08:33:00,
2013-04-03 04:38:00,25.3,-2.5,29.85,North,0,0.0,0.0,29,0.00,,CLR,0.00,VWS V13.01,2013-04-03 08:38:00,
2013-04-03 04:43:00,25.0,-2.8,29.85,North,0,0.0,0.0,29,0.00,,CLR,0.00,VWS V13.01,2013-04-03 08:43:00,
2013-04-03 04:48:00,25.0,-2.8,29.85,North,0,0.0,0.0,29,0.00,,CLR,0.00,VWS V13.01,2013-04-03 08:48:00,
2013-04-03 04:53:00,25.0,-2.8,29.85,North,0,0.0,0.0,29,0.00,,CLR,0.00,VWS V13.01,2013-04-03 08:53:00,
2013-04-03 04:58:00,25.0,-2.8,29.85,North,0,0.0,0.0,29,0.00,,CLR,0.00,VWS V13.01,2013-04-03 08:58:00,
2013-04-03 05:03:00,24.8,-2.9,29.85,North,0,0.0,0.0,29,0.00,,CLR,0.00,VWS V13.01,2013-04-03 09:03:00,
2013-04-03 05:08:00,24.8,-2.9,29.85,North,0,0.0,0.0,29,0.00,,CLR,0.00,VWS V13.01,2013-04-03 09:08:00,
2013-04-03 05:13:00,24.8,-2.9,29.85,North,0,0.0,0.0,29,0.00,,CLR,0.00,VWS V13.01,2013-04-03 09:13:00,
2013-04-03 05:18:00,24.6,-3.1,29.85,North,0,0.0,0.0,29,0.00,,CLR,0.00,VWS V13.01,2013-04-03 09:18:00,
2013-04-03 05:23:00,24.6,-3.1,29.85,North,0,0.0,0.0,29,0.00,,CLR,0.00,VWS V13.01,2013-04-03 09:23:00,
2013-04-03 05:28:00,24.6,-3.1,29.85,North,0,0.0,0.0,29,0.00,,CLR,0.00,VWS V13.01,2013-04-03 09:28:00,
2013-04-03 05:33:00,24.4,-3.2,29.85,North,0,0.0,0.0,29,0.00,,CLR,0.00,VWS V13.01,2013-04-03 09:33:00,
2013-04-03 05:38:00,24.4,-3.2,29.85,North,0,0.0,0.0,29,0.00,,CLR,0.00,VWS V13.01,2013-04-03 09:38:00,
2013-04-03 05:43:00,24.3,-3.4,29.85,North,0,0.0,0.0,29,0.00,,CLR,0.00,VWS V13.01,2013-04-03 09:43:00,
2013-04-03 05:48:00,24.1,-3.6,29.85,North,0,0.0,0.0,29,0.00,,CLR,0.00,VWS V13.01,2013-04-03 09:48:00,
2013-04-03 05:53:00,24.1,-3.6,29.85,North,0,0.0,0.0,29,0.00,,CLR,0.00,VWS V13.01,2013-04-03 09:53:00,
2013-04-03 05:58:00,24.1,-3.6,29.88,North,0,0.0,0.0,29,0.00,,CLR,0.00,VWS V13.01,2013-04-03 09:58:00,
2013-04-03 06:03:00,23.9,-3.7,29.88,North,0,0.0,0.0,29,0.00,,CLR,0.00,VWS V13.01,2013-04-03 10:03:00,
2013-04-03 06:08:00,23.9,-3.7,29.88,North,0,0.0,0.0,29,0.00,,CLR,0.00,VWS V13.01,2013-04-03 10:08:00,
2013-04-03 06:13:00,24.1,-3.6,29.88,North,0,0.0,0.0,29,0.00,,CLR,0.00,VWS V13.01,2013-04-03 10:13:00,
2013-04-03 06:18:00,24.1,-3.6,29.88,North,0,0.0,0.0,29,0.00,,CLR,0.00,VWS V13.01,2013-04-03 10:18:00,
2013-04-03 06:23:00,23.9,-3.7,29.88,North,0,0.0,0.0,29,0.00,,CLR,0.00,VWS V13.01,2013-04-03 10:23:00,
2013-04-03 06:28:00,23.9,-3.7,29.88,North,0,0.0,0.0,29,0.00,,CLR,0.00,VWS V13.01,2013-04-03 10:28:00,
2013-04-03 06:33:00,23.9,-3.7,29.88,North,0,0.0,0.0,29,0.00,,CLR,0.00,VWS V13.01,2013-04-03 10:33:00,
2013-04-03 06:38:00,24.1,-3.6,29.88,North,0,0.0,0.0,29,0.00,,CLR,0.00,VWS V13.01,2013-04-03 10:38:00,
2013-04-03 06:43:00,23.9,-3.7,29.88,North,0,0.0,0.0,29,0.00,,CLR,0.00,VWS V13.01,2013-04-03 10:43:00,
2013-04-03 06:48:00,23.9,-3.7,29.88,North,0,0.0,0.0,29,0.00,,CLR,0.00,VWS V13.01,2013-04-03 10:48:00,
2013-04-03 06:53:00,24.1,-3.6,29.88,North,0,0.0,0.0,29,0.00,,CLR,0.00,VWS V13.01,2013-04-03 10:53:00,
2013-04-03 06:58:00,24.1,-3.6,29.88,North,0,0.0,0.0,29,0.00,,CLR,0.00,VWS V13.01,2013-04-03 10:58:00,
2013-04-03 07:03:00,24.1,-3.6,29.88,North,0,0.0,0.0,29,0.00,,CLR,0.00,VWS V13.01,2013-04-03 11:03:00,
2013-04-03 07:08:00,24.3,-3.4,29.88,North,0,0.0,0.0,29,0.00,,CLR,0.00,VWS V13.01,2013-04-03 11:08:00,
2013-04-03 07:13:00,24.3,-3.4,29.88,North,0,0.0,0.0,29,0.00,,CLR,0.00,VWS V13.01,2013-04-03 11:13:00,
2013-04-03 07:19:00,24.3,-3.4,29.88,North,0,0.0,0.0,29,0.00,,CLR,0.00,VWS V13.01,2013-04-03 11:19:00,
2013-04-03 07:24:00,24.4,-3.2,29.88,North,0,0.0,0.0,29,0.00,,CLR,0.00,VWS V13.01,2013-04-03 11:24:00,
2013-04-03 07:29:00,24.4,-3.2,29.88,North,0,0.0,0.0,29,0.00,,CLR,0.00,VWS V13.01,2013-04-03 11:29:00,
2013-04-03 07:34:00,24.6,-3.1,29.88,North,0,0.0,0.0,29,0.00,,CLR,0.00,VWS V13.01,2013-04-03 11:34:00,
2013-04-03 07:39:00,24.8,-2.9,29.91,North,0,0.0,0.0,29,0.00,,CLR,0.00,VWS V13.01,2013-04-03 11:39:00,
2013-04-03 07:44:00,25.0,-2.8,29.91,North,0,0.0,0.0,29,0.00,,CLR,0.00,VWS V13.01,2013-04-03 11:44:00,
2013-04-03 07:49:00,25.2,-2.6,29.91,North,0,0.0,0.0,29,0.00,,CLR,0.00,VWS V13.01,2013-04-03 11:49:00,
2013-04-03 07:54:00,25.3,-2.5,29.91,North,0,0.0,0.0,29,0.00,,CLR,0.00,VWS V13.01,2013-04-03 11:54:00,
2013-04-03 07:59:00,25.5,-2.3,29.91,North,0,0.0,0.0,29,0.00,,CLR,0.00,VWS V13.01,2013-04-03 11:59:00,
2013-04-03 08:04:00,25.7,-2.2,29.91,North,0,0.0,0.0,29,0.00,,CLR,0.00,VWS V13.01,2013-04-03 12:04:00,
2013-04-03 08:09:00,25.9,-2.0,29.91,North,0,0.0,0.0,29,0.00,,CLR,0.00,VWS V13.01,2013-04-03 12:09:00,
2013-04-03 08:14:00,26.1,-1.8,29.91,North,0,0.0,0.0,29,0.00,,CLR,0.00,VWS V13.01,2013-04-03 12:14:00,
2013-04-03 08:19:00,26.2,-1.7,29.91,North,0,0.0,0.0,29,0.00,,CLR,0.00,VWS V13.01,2013-04-03 12:19:00,
2013-04-03 08:24:00,26.6,-1.4,29.91,North,0,0.0,0.0,29,0.00,,CLR,0.00,VWS V13.01,2013-04-03 12:24:00,
2013-04-03 08:29:00,26.8,-1.9,29.91,North,0,0.0,0.0,28,0.00,,CLR,0.00,VWS V13.01,2013-04-03 12:29:00,
2013-04-03 08:34:00,27.1,-1.6,29.91,North,0,0.0,0.0,28,0.00,,CLR,0.00,VWS V13.01,2013-04-03 12:34:00,
2013-04-03 08:39:00,27.5,-1.3,29.91,North,0,0.0,0.0,28,0.00,,CLR,0.00,VWS V13.01,2013-04-03 12:39:00,
2013-04-03 08:44:00,27.9,-1.0,29.91,North,0,0.0,0.0,28,0.00,,CLR,0.00,VWS V13.01,2013-04-03 12:44:00,
2013-04-03 08:49:00,28.0,-0.9,29.91,North,0,0.0,0.0,28,0.00,,CLR,0.00,VWS V13.01,2013-04-03 12:49:00,
2013-04-03 08:54:00,28.0,-2.4,29.88,North,0,0.0,0.0,26,0.00,,CLR,0.00,VWS V13.01,2013-04-03 12:54:00,
2013-04-03 08:59:00,28.2,-2.2,29.88,North,0,0.0,0.0,26,0.00,,CLR,0.00,VWS V13.01,2013-04-03 12:59:00,
2013-04-03 09:04:00,28.6,-2.8,29.88,North,0,0.0,0.0,25,0.00,,CLR,0.00,VWS V13.01,2013-04-03 13:04:00,
2013-04-03 09:09:00,28.9,-2.5,29.91,North,0,0.0,0.0,25,0.00,,CLR,0.00,VWS V13.01,2013-04-03 13:09:00,
2013-04-03 09:14:00,29.1,-2.3,29.91,North,0,0.0,0.0,25,0.00,,CLR,0.00,VWS V13.01,2013-04-03 13:14:00,
2013-04-03 09:19:00,29.5,-2.0,29.91,North,0,0.0,0.0,25,0.00,,CLR,0.00,VWS V13.01,2013-04-03 13:19:00,
2013-04-03 09:24:00,29.7,-1.8,29.88,North,0,0.0,0.0,25,0.00,,CLR,0.00,VWS V13.01,2013-04-03 13:24:00,
2013-04-03 09:29:00,29.8,-1.7,29.88,North,0,0.0,0.0,25,0.00,,CLR,0.00,VWS V13.01,2013-04-03 13:29:00,
2013-04-03 09:34:00,30.2,-1.4,29.88,North,0,0.0,0.0,25,0.00,,CLR,0.00,VWS V13.01,2013-04-03 13:34:00,
2013-04-03 09:39:00,30.9,-0.8,29.91,North,0,0.0,0.0,25,0.00,,CLR,0.00,VWS V13.01,2013-04-03 13:39:00,
2013-04-03 09:44:00,31.5,-0.3,29.91,North,0,0.0,0.0,25,0.00,,FEW050,0.00,VWS V13.01,2013-04-03 13:44:00,
2013-04-03 09:49:00,31.3,-0.4,29.91,North,0,0.0,0.0,25,0.00,,FEW050,0.00,VWS V13.01,2013-04-03 13:49:00,
2013-04-03 09:54:00,31.3,-0.4,29.88,North,0,0.0,0.0,25,0.00,,FEW050,0.00,VWS V13.01,2013-04-03 13:54:00,
2013-04-03 09:59:00,32.0,0.2,29.88,North,0,0.0,0.0,25,0.00,,FEW050,0.00,VWS V13.01,2013-04-03 13:59:00,
2013-04-03 10:04:00,32.2,0.3,29.88,North,0,0.0,0.0,25,0.00,,CLR,0.00,VWS V13.01,2013-04-03 14:04:00,
2013-04-03 10:09:00,32.4,0.5,29.91,North,0,0.0,0.0,25,0.00,,CLR,0.00,VWS V13.01,2013-04-03 14:09:00,
2013-04-03 10:14:00,32.7,0.8,29.91,North,0,0.0,0.0,25,0.00,,CLR,0.00,VWS V13.01,2013-04-03 14:14:00,
2013-04-03 10:19:00,32.9,0.9,29.91,North,0,0.0,0.0,25,0.00,,CLR,0.00,VWS V13.01,2013-04-03 14:19:00,
2013-04-03 10:24:00,33.1,1.1,29.91,North,0,0.0,0.0,25,0.00,,CLR,0.00,VWS V13.01,2013-04-03 14:24:00,
2013-04-03 10:29:00,33.3,-0.5,29.91,North,0,0.0,0.0,23,0.00,,CLR,0.00,VWS V13.01,2013-04-03 14:29:00,
2013-04-03 10:34:00,33.3,-0.5,29.91,North,0,0.0,0.0,23,0.00,,CLR,0.00,VWS V13.01,2013-04-03 14:34:00,
2013-04-03 10:39:00,33.8,-1.0,29.91,North,0,0.0,0.0,22,0.00,,CLR,0.00,VWS V13.01,2013-04-03 14:39:00,
2013-04-03 10:44:00,34.0,-0.9,29.91,North,0,0.0,0.0,22,0.00,,CLR,0.00,VWS V13.01,2013-04-03 14:44:00,
2013-04-03 10:49:00,33.8,-1.0,29.91,North,0,0.0,0.0,22,0.00,,CLR,0.00,VWS V13.01,2013-04-03 14:49:00,
2013-04-03 10:54:00,34.2,-0.7,29.91,North,0,0.0,0.0,22,0.00,,CLR,0.00,VWS V13.01,2013-04-03 14:54:00,
2013-04-03 10:59:00,34.3,-0.6,29.91,North,0,0.0,0.0,22,0.00,,CLR,0.00,VWS V13.01,2013-04-03 14:59:00,
2013-04-03 11:04:00,34.7,-0.2,29.91,North,0,0.0,0.0,22,0.00,,CLR,0.00,VWS V13.01,2013-04-03 15:04:00,
2013-04-03 11:09:00,34.9,-0.1,29.91,North,0,0.0,0.0,22,0.00,,CLR,0.00,VWS V13.01,2013-04-03 15:09:00,
2013-04-03 11:14:00,34.9,-0.1,29.91,North,0,0.0,0.0,22,0.00,,CLR,0.00,VWS V13.01,2013-04-03 15:14:00,
2013-04-03 11:19:00,35.2,0.2,29.91,North,0,0.0,0.0,22,0.00,,CLR,0.00,VWS V13.01,2013-04-03 15:19:00,
2013-04-03 11:24:00,35.1,0.1,29.91,North,0,0.0,0.0,22,0.00,,CLR,0.00,VWS V13.01,2013-04-03 15:24:00,
2013-04-03 11:29:00,35.1,0.1,29.91,North,0,0.0,0.0,22,0.00,,CLR,0.00,VWS V13.01,2013-04-03 15:29:00,
2013-04-03 11:35:00,35.6,0.5,29.91,North,0,0.0,0.0,22,0.00,,CLR,0.00,VWS V13.01,2013-04-03 15:35:00,
2013-04-03 11:40:00,36.0,0.8,29.91,North,0,0.0,0.0,22,0.00,,CLR,0.00,VWS V13.01,2013-04-03 15:40:00,
2013-04-03 11:45:00,36.0,0.8,29.91,North,0,0.0,0.0,22,0.00,,CLR,0.00,VWS V13.01,2013-04-03 15:45:00,
2013-04-03 11:50:00,36.0,0.8,29.91,North,0,0.0,0.0,22,0.00,,CLR,0.00,VWS V13.01,2013-04-03 15:50:00,
2013-04-03 11:55:00,36.7,1.4,29.91,North,0,0.0,0.0,22,0.00,,CLR,0.00,VWS V13.01,2013-04-03 15:55:00,
2013-04-03 12:00:00,37.0,1.7,29.91,North,0,0.0,0.0,22,0.00,,CLR,0.00,VWS V13.01,2013-04-03 16:00:00,
2013-04-03 12:05:00,37.0,1.7,29.91,North,0,0.0,0.0,22,0.00,,CLR,0.00,VWS V13.01,2013-04-03 16:05:00,
2013-04-03 12:10:00,37.4,1.0,29.91,North,0,0.0,0.0,21,0.00,,CLR,0.00,VWS V13.01,2013-04-03 16:10:00,
2013-04-03 12:15:00,38.5,2.0,29.91,North,0,0.0,0.0,21,0.00,,CLR,0.00,VWS V13.01,2013-04-03 16:15:00,
2013-04-03 12:20:00,38.5,2.0,29.91,North,0,0.0,0.0,21,0.00,,CLR,0.00,VWS V13.01,2013-04-03 16:20:00,
2013-04-03 12:25:00,38.3,1.8,29.91,North,0,0.0,0.0,21,0.00,,CLR,0.00,VWS V13.01,2013-04-03 16:25:00,
2013-04-03 12:30:00,38.8,2.3,29.91,North,0,0.0,0.0,21,0.00,,CLR,0.00,VWS V13.01,2013-04-03 16:30:00,
2013-04-03 12:35:00,38.5,2.0,29.91,North,0,0.0,0.0,21,0.00,,CLR,0.00,VWS V13.01,2013-04-03 16:35:00,
2013-04-03 12:40:00,38.5,2.0,29.91,North,0,0.0,0.0,21,0.00,,CLR,0.00,VWS V13.01,2013-04-03 16:40:00,
2013-04-03 12:45:00,38.7,2.1,29.91,North,0,0.0,0.0,21,0.00,,CLR,0.00,VWS V13.01,2013-04-03 16:45:00,
2013-04-03 12:50:00,38.7,2.1,29.91,North,0,0.0,0.0,21,0.00,,CLR,0.00,VWS V13.01,2013-04-03 16:50:00,
2013-04-03 12:55:00,38.5,2.0,29.91,North,0,0.0,0.0,21,0.00,,CLR,0.00,VWS V13.01,2013-04-03 16:55:00,
2013-04-03 13:00:00,38.5,2.0,29.91,North,0,0.0,0.0,21,0.00,,CLR,0.00,VWS V13.01,2013-04-03 17:00:00,
2013-04-03 13:05:00,39.0,2.4,29.91,North,0,0.0,0.0,21,0.00,,CLR,0.00,VWS V13.01,2013-04-03 17:05:00,
2013-04-03 13:10:00,39.0,2.4,29.91,North,0,0.0,0.0,21,0.00,,CLR,0.00,VWS V13.01,2013-04-03 17:10:00,
2013-04-03 13:15:00,39.4,2.7,29.91,North,0,0.0,0.0,21,0.00,,CLR,0.00,VWS V13.01,2013-04-03 17:15:00,
2013-04-03 13:20:00,39.7,3.0,29.91,North,0,0.0,0.0,21,0.00,,CLR,0.00,VWS V13.01,2013-04-03 17:20:00,
2013-04-03 13:25:00,39.6,2.9,29.88,North,0,0.0,0.0,21,0.00,,CLR,0.00,VWS V13.01,2013-04-03 17:25:00,
2013-04-03 13:30:00,39.7,3.0,29.88,North,0,0.0,0.0,21,0.00,,CLR,0.00,VWS V13.01,2013-04-03 17:30:00,
2013-04-03 13:35:00,39.6,2.9,29.88,North,0,0.0,0.0,21,0.00,,CLR,0.00,VWS V13.01,2013-04-03 17:35:00,
2013-04-03 13:40:00,39.7,3.0,29.91,North,0,0.0,0.0,21,0.00,,CLR,0.00,VWS V13.01,2013-04-03 17:40:00,
2013-04-03 13:45:00,40.3,3.5,29.91,North,0,0.0,0.0,21,0.00,,CLR,0.00,VWS V13.01,2013-04-03 17:45:00,
2013-04-03 13:50:00,40.3,3.5,29.91,North,0,0.0,0.0,21,0.00,,CLR,0.00,VWS V13.01,2013-04-03 17:50:00,
2013-04-03 13:56:00,40.3,3.5,29.88,North,0,0.0,0.0,21,0.00,,CLR,0.00,VWS V13.01,2013-04-03 17:56:00,
2013-04-03 14:01:00,41.0,4.1,29.88,North,0,0.0,0.0,21,0.00,,CLR,0.00,VWS V13.01,2013-04-03 18:01:00,
2013-04-03 14:06:00,41.5,4.5,29.88,North,0,0.0,0.0,21,0.00,,CLR,0.00,VWS V13.01,2013-04-03 18:06:00,
2013-04-03 14:11:00,42.1,5.0,29.88,North,0,0.0,0.0,21,0.00,,CLR,0.00,VWS V13.01,2013-04-03 18:11:00,
2013-04-03 14:16:00,41.4,4.4,29.88,North,0,0.0,0.0,21,0.00,,CLR,0.00,VWS V13.01,2013-04-03 18:16:00,
2013-04-03 14:21:00,42.6,5.4,29.88,North,0,0.0,0.0,21,0.00,,CLR,0.00,VWS V13.01,2013-04-03 18:21:00,
2013-04-03 14:26:00,42.8,4.5,29.88,North,0,0.0,0.0,20,0.00,,CLR,0.00,VWS V13.01,2013-04-03 18:26:00,
2013-04-03 14:31:00,42.1,5.0,29.88,North,0,0.0,0.0,21,0.00,,CLR,0.00,VWS V13.01,2013-04-03 18:31:00,
2013-04-03 14:36:00,42.3,5.1,29.88,North,0,0.0,0.0,21,0.00,,CLR,0.00,VWS V13.01,2013-04-03 18:36:00,
2013-04-03 14:42:00,42.3,5.1,29.88,North,0,0.0,0.0,21,0.00,,CLR,0.00,VWS V13.01,2013-04-03 18:42:00,
2013-04-03 14:47:00,42.1,5.0,29.88,North,0,0.0,0.0,21,0.00,,CLR,0.00,VWS V13.01,2013-04-03 18:47:00,
2013-04-03 14:52:00,42.6,5.4,29.88,North,0,0.0,0.0,21,0.00,,CLR,0.00,VWS V13.01,2013-04-03 18:52:00,
2013-04-03 14:57:00,43.3,5.0,29.88,North,0,0.0,0.0,20,0.00,,CLR,0.00,VWS V13.01,2013-04-03 18:57:00,
2013-04-03 15:02:00,43.3,5.0,29.88,North,0,0.0,0.0,20,0.00,,CLR,0.00,VWS V13.01,2013-04-03 19:02:00,
2013-04-03 15:07:00,42.8,4.5,29.88,North,0,0.0,0.0,20,0.00,,CLR,0.00,VWS V13.01,2013-04-03 19:07:00,
2013-04-03 15:12:00,42.4,5.3,29.88,North,0,0.0,0.0,21,0.00,,CLR,0.00,VWS V13.01,2013-04-03 19:12:00,
2013-04-03 15:17:00,42.8,4.5,29.88,North,0,0.0,0.0,20,0.00,,CLR,0.00,VWS V13.01,2013-04-03 19:17:00,
2013-04-03 15:22:00,42.8,4.5,29.88,North,0,0.0,0.0,20,0.00,,CLR,0.00,VWS V13.01,2013-04-03 19:22:00,
2013-04-03 15:27:00,42.8,4.5,29.88,North,0,0.0,0.0,20,0.00,,CLR,0.00,VWS V13.01,2013-04-03 19:27:00,
2013-04-03 15:32:00,42.8,4.5,29.88,North,0,0.0,0.0,20,0.00,,CLR,0.00,VWS V13.01,2013-04-03 19:32:00,
2013-04-03 15:37:00,42.6,5.4,29.88,North,0,0.0,0.0,21,0.00,,CLR,0.00,VWS V13.01,2013-04-03 19:37:00,
2013-04-03 15:42:00,42.4,5.3,29.88,North,0,0.0,0.0,21,0.00,,CLR,0.00,VWS V13.01,2013-04-03 19:42:00,
2013-04-03 15:47:00,42.4,5.3,29.88,North,0,0.0,0.0,21,0.00,,CLR,0.00,VWS V13.01,2013-04-03 19:47:00,
2013-04-03 15:52:00,42.4,5.3,29.88,North,0,0.0,0.0,21,0.00,,CLR,0.00,VWS V13.01,2013-04-03 19:52:00,
2013-04-03 15:57:00,43.2,4.8,29.88,North,0,0.0,0.0,20,0.00,,CLR,0.00,VWS V13.01,2013-04-03 19:57:00,
2013-04-03 16:02:00,43.3,5.0,29.88,North,0,0.0,0.0,20,0.00,,CLR,0.00,VWS V13.01,2013-04-03 20:02:00,
2013-04-03 16:08:00,42.8,4.5,29.88,North,0,0.0,0.0,20,0.00,,CLR,0.00,VWS V13.01,2013-04-03 20:08:00,
2013-04-03 16:13:00,42.4,5.3,29.88,North,0,0.0,0.0,21,0.00,,CLR,0.00,VWS V13.01,2013-04-03 20:13:00,
2013-04-03 16:18:00,42.8,4.5,29.88,North,0,0.0,0.0,20,0.00,,CLR,0.00,VWS V13.01,2013-04-03 20:18:00,
2013-04-03 16:23:00,43.0,4.7,29.88,North,0,0.0,0.0,20,0.00,,CLR,0.00,VWS V13.01,2013-04-03 20:23:00,
2013-04-03 16:28:00,42.8,4.5,29.91,North,0,0.0,0.0,20,0.00,,CLR,0.00,VWS V13.01,2013-04-03 20:28:00,
2013-04-03 16:33:00,42.6,5.4,29.91,North,0,0.0,0.0,21,0.00,,CLR,0.00,VWS V13.01,2013-04-03 20:33:00,
2013-04-03 16:38:00,42.4,5.3,29.91,North,0,0.0,0.0,21,0.00,,CLR,0.00,VWS V13.01,2013-04-03 20:38:00,
2013-04-03 16:43:00,42.4,5.3,29.91,North,0,0.0,0.0,21,0.00,,CLR,0.00,VWS V13.01,2013-04-03 20:43:00,
2013-04-03 16:48:00,42.6,5.4,29.91,North,0,0.0,0.0,21,0.00,,CLR,0.00,VWS V13.01,2013-04-03 20:48:00,
2013-04-03 16:53:00,42.8,4.5,29.91,North,0,0.0,0.0,20,0.00,,CLR,0.00,VWS V13.01,2013-04-03 20:53:00,
2013-04-03 16:58:00,42.3,5.1,29.91,North,0,0.0,0.0,21,0.00,,CLR,0.00,VWS V13.01,2013-04-03 20:58:00,
2013-04-03 17:03:00,42.4,5.3,29.91,North,0,0.0,0.0,21,0.00,,CLR,0.00,VWS V13.01,2013-04-03 21:03:00,
2013-04-03 17:08:00,41.9,4.8,29.91,North,0,0.0,0.0,21,0.00,,CLR,0.00,VWS V13.01,2013-04-03 21:08:00,
2013-04-03 17:13:00,41.4,4.4,29.91,North,0,0.0,0.0,21,0.00,,CLR,0.00,VWS V13.01,2013-04-03 21:13:00,
2013-04-03 17:18:00,41.0,4.1,29.91,North,0,0.0,0.0,21,0.00,,CLR,0.00,VWS V13.01,2013-04-03 21:18:00,
2013-04-03 17:23:00,41.2,4.2,29.91,North,0,0.0,0.0,21,0.00,,CLR,0.00,VWS V13.01,2013-04-03 21:23:00,
2013-04-03 17:28:00,40.8,3.9,29.91,North,0,0.0,0.0,21,0.00,,CLR,0.00,VWS V13.01,2013-04-03 21:28:00,
2013-04-03 17:33:00,40.3,3.5,29.91,North,0,0.0,0.0,21,0.00,,CLR,0.00,VWS V13.01,2013-04-03 21:33:00,
2013-04-03 17:38:00,40.5,3.6,29.91,North,0,0.0,0.0,21,0.00,,CLR,0.00,VWS V13.01,2013-04-03 21:38:00,
2013-04-03 17:43:00,40.5,3.6,29.91,North,0,0.0,0.0,21,0.00,,CLR,0.00,VWS V13.01,2013-04-03 21:43:00,
2013-04-03 17:49:00,40.5,3.6,29.91,North,0,0.0,0.0,21,0.00,,CLR,0.00,VWS V13.01,2013-04-03 21:49:00,
2013-04-03 17:54:00,40.5,3.6,29.91,North,0,0.0,0.0,21,0.00,,CLR,0.00,VWS V13.01,2013-04-03 21:54:00,
2013-04-03 17:59:00,40.1,3.3,29.91,North,0,0.0,0.0,21,0.00,,CLR,0.00,VWS V13.01,2013-04-03 21:59:00,
2013-04-03 18:04:00,39.7,3.0,29.91,North,0,0.0,0.0,21,0.00,,CLR,0.00,VWS V13.01,2013-04-03 22:04:00,
2013-04-03 18:09:00,39.2,2.6,29.94,North,0,0.0,0.0,21,0.00,,CLR,0.00,VWS V13.01,2013-04-03 22:09:00,
2013-04-03 18:14:00,39.2,2.6,29.94,North,0,0.0,0.0,21,0.00,,CLR,0.00,VWS V13.01,2013-04-03 22:14:00,
2013-04-03 18:19:00,38.8,2.3,29.94,North,0,0.0,0.0,21,0.00,,CLR,0.00,VWS V13.01,2013-04-03 22:19:00,
2013-04-03 18:24:00,38.8,2.3,29.94,North,0,0.0,0.0,21,0.00,,CLR,0.00,VWS V13.01,2013-04-03 22:24:00,
2013-04-03 18:29:00,38.7,2.1,29.94,North,0,0.0,0.0,21,0.00,,CLR,0.00,VWS V13.01,2013-04-03 22:29:00,
2013-04-03 18:34:00,38.5,2.0,29.94,North,0,0.0,0.0,21,0.00,,CLR,0.00,VWS V13.01,2013-04-03 22:34:00,
2013-04-03 18:39:00,37.9,1.5,29.97,North,0,0.0,0.0,21,0.00,,CLR,0.00,VWS V13.01,2013-04-03 22:39:00,
2013-04-03 18:44:00,37.6,1.2,29.97,North,0,0.0,0.0,21,0.00,,CLR,0.00,VWS V13.01,2013-04-03 22:44:00,
2013-04-03 18:49:00,37.4,1.0,29.97,North,0,0.0,0.0,21,0.00,,CLR,0.00,VWS V13.01,2013-04-03 22:49:00,
2013-04-03 18:54:00,36.9,1.6,29.97,North,0,0.0,0.0,22,0.00,,CLR,0.00,VWS V13.01,2013-04-03 22:54:00,
2013-04-03 18:59:00,36.5,1.3,29.97,North,0,0.0,0.0,22,0.00,,CLR,0.00,VWS V13.01,2013-04-03 22:59:00,
2013-04-03 19:04:00,36.0,0.8,29.97,North,0,0.0,0.0,22,0.00,,CLR,0.00,VWS V13.01,2013-04-03 23:04:00,
2013-04-03 19:10:00,35.4,0.4,29.97,North,0,0.0,0.0,22,0.00,,CLR,0.00,VWS V13.01,2013-04-03 23:10:00,
2013-04-03 19:15:00,34.5,-0.4,29.97,North,0,0.0,0.0,22,0.00,,CLR,0.00,VWS V13.01,2013-04-03 23:15:00,
2013-04-03 19:20:00,34.0,-0.9,29.97,North,0,0.0,0.0,22,0.00,,CLR,0.00,VWS V13.01,2013-04-03 23:20:00,
2013-04-03 19:25:00,33.8,-1.0,29.97,North,0,0.0,0.0,22,0.00,,CLR,0.00,VWS V13.01,2013-04-03 23:25:00,
2013-04-03 19:30:00,33.6,-0.2,29.97,North,0,0.0,0.0,23,0.00,,CLR,0.00,VWS V13.01,2013-04-03 23:30:00,
2013-04-03 19:35:00,33.4,-0.4,29.97,North,0,0.0,0.0,23,0.00,,CLR,0.00,VWS V13.01,2013-04-03 23:35:00,
2013-04-03 19:40:00,33.1,-0.7,30.00,North,0,0.0,0.0,23,0.00,,CLR,0.00,VWS V13.01,2013-04-03 23:40:00,
2013-04-03 19:45:00,32.9,-0.8,30.00,North,0,0.0,0.0,23,0.00,,CLR,0.00,VWS V13.01,2013-04-03 23:45:00,
2013-04-03 19:50:00,32.7,-1.0,30.00,North,0,0.0,0.0,23,0.00,,CLR,0.00,VWS V13.01,2013-04-03 23:50:00,
2013-04-03 19:55:00,32.7,-1.0,30.00,North,0,0.0,0.0,23,0.00,,CLR,0.00,VWS V13.01,2013-04-03 23:55:00,
2013-04-03 20:00:00,32.7,-1.0,30.00,North,0,0.0,0.0,23,0.00,,CLR,0.00,VWS V13.01,2013-04-04 00:00:00,
2013-04-03 20:05:00,32.5,-1.1,30.00,North,0,0.0,0.0,23,0.00,,CLR,0.00,VWS V13.01,2013-04-04 00:05:00,
2013-04-03 20:10:00,32.5,-1.1,30.03,North,0,0.0,0.0,23,0.00,,CLR,0.00,VWS V13.01,2013-04-04 00:10:00,
2013-04-03 20:15:00,32.5,-1.1,30.03,North,0,0.0,0.0,23,0.00,,CLR,0.00,VWS V13.01,2013-04-04 00:15:00,
2013-04-03 20:20:00,32.4,-1.3,30.03,North,0,0.0,0.0,23,0.00,,CLR,0.00,VWS V13.01,2013-04-04 00:20:00,
2013-04-03 20:25:00,32.4,-1.3,30.03,North,0,0.0,0.0,23,0.00,,CLR,0.00,VWS V13.01,2013-04-04 00:25:00,
2013-04-03 20:30:00,32.2,-1.4,30.03,North,0,0.0,0.0,23,0.00,,CLR,0.00,VWS V13.01,2013-04-04 00:30:00,
2013-04-03 20:35:00,32.0,-1.6,30.03,North,0,0.0,0.0,23,0.00,,CLR,0.00,VWS V13.01,2013-04-04 00:35:00,
2013-04-03 20:40:00,31.6,-1.9,30.03,North,0,0.0,0.0,23,0.00,,CLR,0.00,VWS V13.01,2013-04-04 00:40:00,
2013-04-03 20:45:00,31.5,-2.0,30.03,North,0,0.0,0.0,23,0.00,,CLR,0.00,VWS V13.01,2013-04-04 00:45:00,
2013-04-03 20:50:00,31.3,-2.2,30.03,North,0,0.0,0.0,23,0.00,,CLR,0.00,VWS V13.01,2013-04-04 00:50:00,
2013-04-03 20:55:00,31.1,-2.4,30.03,North,0,0.0,0.0,23,0.00,,CLR,0.00,VWS V13.01,2013-04-04 00:55:00,
2013-04-03 21:00:00,31.1,-2.4,30.03,North,0,0.0,0.0,23,0.00,,CLR,0.00,VWS V13.01,2013-04-04 01:00:00,
2013-04-03 21:05:00,31.1,-2.4,30.03,North,0,0.0,0.0,23,0.00,,CLR,0.00,VWS V13.01,2013-04-04 01:05:00,
2013-04-03 21:10:00,31.1,-2.4,30.03,North,0,0.0,0.0,23,0.00,,CLR,0.00,VWS V13.01,2013-04-04 01:10:00,
2013-04-03 21:15:00,31.1,-2.4,30.03,North,0,0.0,0.0,23,0.00,,CLR,0.00,VWS V13.01,2013-04-04 01:15:00,
2013-04-03 21:20:00,30.9,-2.5,30.03,North,0,0.0,0.0,23,0.00,,CLR,0.00,VWS V13.01,2013-04-04 01:20:00,
2013-04-03 21:25:00,30.7,-2.7,30.06,North,0,0.0,0.0,23,0.00,,CLR,0.00,VWS V13.01,2013-04-04 01:25:00,
2013-04-03 21:30:00,30.7,-2.7,30.06,North,0,0.0,0.0,23,0.00,,CLR,0.00,VWS V13.01,2013-04-04 01:30:00,
2013-04-03 21:35:00,30.7,-2.7,30.06,North,0,0.0,0.0,23,0.00,,CLR,0.00,VWS V13.01,2013-04-04 01:35:00,
2013-04-03 21:40:00,30.6,-2.8,30.06,North,0,0.0,0.0,23,0.00,,CLR,0.00,VWS V13.01,2013-04-04 01:40:00,
2013-04-03 21:46:00,30.4,-3.0,30.06,North,0,0.0,0.0,23,0.00,,CLR,0.00,VWS V13.01,2013-04-04 01:46:00,
2013-04-03 21:51:00,30.2,-3.1,30.06,North,0,0.0,0.0,23,0.00,,CLR,0.00,VWS V13.01,2013-04-04 01:51:00,
2013-04-03 21:56:00,30.0,-3.3,30.06,North,0,0.0,0.0,23,0.00,,CLR,0.00,VWS V13.01,2013-04-04 01:56:00,
2013-04-03 22:01:00,30.0,-3.3,30.06,North,0,0.0,0.0,23,0.00,,CLR,0.00,VWS V13.01,2013-04-04 02:01:00,
2013-04-03 22:06:00,30.0,-3.3,30.06,North,0,0.0,0.0,23,0.00,,CLR,0.00,VWS V13.01,2013-04-04 02:06:00,
2013-04-03 22:11:00,29.8,-3.4,30.06,North,0,0.0,0.0,23,0.00,,CLR,0.00,VWS V13.01,2013-04-04 02:11:00,
2013-04-03 22:16:00,29.8,-3.4,30.06,North,0,0.0,0.0,23,0.00,,CLR,0.00,VWS V13.01,2013-04-04 02:16:00,
2013-04-03 22:22:00,29.8,-3.4,30.06,North,0,0.0,0.0,23,0.00,,CLR,0.00,VWS V13.01,2013-04-04 02:22:00,
2013-04-03 22:27:00,29.7,-3.6,30.06,North,0,0.0,0.0,23,0.00,,CLR,0.00,VWS V13.01,2013-04-04 02:27:00,
2013-04-03 22:32:00,29.8,-3.4,30.06,North,0,0.0,0.0,23,0.00,,CLR,0.00,VWS V13.01,2013-04-04 02:32:00,
2013-04-03 22:37:00,29.7,-3.6,30.06,North,0,0.0,0.0,23,0.00,,CLR,0.00,VWS V13.01,2013-04-04 02:37:00,
2013-04-03 22:42:00,29.7,-1.8,30.06,North,0,0.0,0.0,25,0.00,,CLR,0.00,VWS V13.01,2013-04-04 02:42:00,
2013-04-03 22:47:00,29.5,-2.0,30.06,North,0,0.0,0.0,25,0.00,,CLR,0.00,VWS V13.01,2013-04-04 02:47:00,
2013-04-03 22:52:00,29.5,-2.0,30.06,North,0,0.0,0.0,25,0.00,,CLR,0.00,VWS V13.01,2013-04-04 02:52:00,
2013-04-03 22:57:00,29.5,-2.0,30.06,North,0,0.0,0.0,25,0.00,,CLR,0.00,VWS V13.01,2013-04-04 02:57:00,
2013-04-03 23:02:00,29.3,-2.2,30.06,North,0,0.0,0.0,25,0.00,,CLR,0.00,VWS V13.01,2013-04-04 03:02:00,
2013-04-03 23:07:00,29.3,-2.2,30.06,North,0,0.0,0.0,25,0.00,,CLR,0.00,VWS V13.01,2013-04-04 03:07:00,
2013-04-03 23:12:00,29.3,-2.2,30.09,North,0,0.0,0.0,25,0.00,,CLR,0.00,VWS V13.01,2013-04-04 03:12:00,
2013-04-03 23:17:00,29.3,-2.2,30.09,North,0,0.0,0.0,25,0.00,,CLR,0.00,VWS V13.01,2013-04-04 03:17:00,
2013-04-03 23:22:00,29.3,-2.2,30.09,North,0,0.0,0.0,25,0.00,,CLR,0.00,VWS V13.01,2013-04-04 03:22:00,
2013-04-03 23:28:00,29.5,-2.0,30.09,North,0,0.0,0.0,25,0.00,,CLR,0.00,VWS V13.01,2013-04-04 03:28:00,
2013-04-03 23:33:00,29.5,-2.0,30.09,North,0,0.0,0.0,25,0.00,,CLR,0.00,VWS V13.01,2013-04-04 03:33:00,
2013-04-03 23:38:00,29.3,-2.2,30.09,North,0,0.0,0.0,25,0.00,,CLR,0.00,VWS V13.01,2013-04-04 03:38:00,
2013-04-03 23:43:00,29.1,-2.3,30.09,North,0,0.0,0.0,25,0.00,,CLR,0.00,VWS V13.01,2013-04-04 03:43:00,
2013-04-03 23:48:00,28.9,-2.5,30.09,North,0,0.0,0.0,25,0.00,,CLR,0.00,VWS V13.01,2013-04-04 03:48:00,
2013-04-03 23:53:00,28.9,-2.5,30.09,North,0,0.0,0.0,25,0.00,,CLR,0.00,VWS V13.01,2013-04-04 03:53:00,
2013-04-03 23:58:00,28.9,-2.5,30.09,North,0,0.0,0.0,25,0.00,,CLR,0.00,VWS V13.01,2013-04-04 03:58:00,